HULIANWANG DIGUI-43 (65046 NORAD) Tracking and Keplerian Element Data

This shows tracking and keplerian element data for the satellite.

Feedback or suggestion? Click here.




ElementValue
Catalog65046
NameHULIANWANG DIGUI-43
Epoch Orbit1955
Epoch Day354.21437661
Epoch Year2025
RAAN187.6665
Inclination49.9964
Eccentricity6.53E-05
Argument of Perigee113.865
Mean Anonmoly246.229
Mean Motion13.29325919
Decay Rate-9E-07
L11 65046U 25162D 25354.21437661 -.00000090 00000+0 73188-4 0 9996
L22 65046 49.9964 187.6665 0000653 113.8650 246.2290 13.29325919 19550



Live tracking and technical data element details for HULIANWANG DIGUI-43 (NORAD 65046). HULIANWANG DIGUI-43 can be tracked NOW for your location showing map with azimuth and elevation plus other details from your city location.







IsCatalogInMostPopularTable: catalog: 65046, numindb: 5
Update: records affected: 1



GetName: 65046 HULIANWANG DIGUI-43

Hit Count: updated at: Tue, 21 Apr 2026 20:04:13 GMT